| time (UTC) | temp C | wind direction | speed KPH | gust KPH | rain 1hr cm | rain 24hr cm | rain mn cm | humidity % | barometer mb |
| 20260902062127 | 10 | 218 | 0.0 | 0.0 | 0.00 | 0.00 | 0.00 | 77 | 1030.5 |
| 20260902061626 | 11 | 213 | 0.0 | 0.0 | 0.00 | 0.00 | 0.00 | 76 | 1030.5 |
| 20260902061122 | 10 | 167 | 3.2 | 3.2 | 0.00 | 0.00 | 0.00 | 76 | 1030.7 |
| 20260902060619 | 10 | 194 | 1.6 | 1.6 | 0.00 | 0.00 | 0.00 | 77 | 1030.3 |
| 20260902060115 | 10 | 218 | 0.0 | 0.0 | 0.00 | 0.00 | 0.00 | 76 | 1030.4 |
| 20260902055610 | 11 | 213 | 0.0 | 0.0 | 0.00 | 0.10 | 0.10 | 76 | 1030.3 |
| 20260902055105 | 11 | 203 | 0.0 | 0.0 | 0.00 | 0.10 | 0.10 | 75 | 1030.4 |
| 20260902054600 | 11 | 213 | 0.0 | 0.0 | 0.00 | 0.10 | 0.10 | 74 | 1030.4 |
| 20260902054056 | 11 | 195 | 0.0 | 0.0 | 0.00 | 0.10 | 0.10 | 74 | 1030.4 |
| 20260902053551 | 11 | 213 | 0.0 | 0.0 | 0.00 | 0.10 | 0.10 | 74 | 1030.5 |
| 20260902053050 | 11 | 153 | 1.6 | 1.6 | 0.00 | 0.10 | 0.10 | 75 | 1030.2 |
| 20260902052545 | 11 | 195 | 0.0 | 1.6 | 0.00 | 0.10 | 0.10 | 75 | 1030.4 |
| 20260902052041 | 11 | 201 | 0.0 | 1.6 | 0.00 | 0.10 | 0.10 | 77 | 1030.5 |
| 20260902051540 | 11 | 209 | 0.0 | 0.0 | 0.00 | 0.10 | 0.10 | 76 | 1030.4 |
| 20260902051039 | 11 | 217 | 0.0 | 0.0 | 0.00 | 0.10 | 0.10 | 76 | 1030.8 |
| 20260902050534 | 11 | 201 | 1.6 | 1.6 | 0.00 | 0.10 | 0.10 | 74 | 1030.8 |
| 20260902050030 | 11 | 206 | 0.0 | 0.0 | 0.00 | 0.10 | 0.10 | 74 | 1030.4 |
| 20260902045525 | 11 | 185 | 1.6 | 1.6 | 0.00 | 0.10 | 0.10 | 75 | 1030.7 |
| 20260902045021 | 11 | 206 | 0.0 | 0.0 | 0.00 | 0.10 | 0.10 | 75 | 1030.4 |
| 20260902044516 | 11 | 189 | 1.6 | 1.6 | 0.00 | 0.10 | 0.10 | 75 | 1030.5 |
| 20260902044012 | 11 | 201 | 1.6 | 1.6 | 0.00 | 0.10 | 0.10 | 75 | 1030.8 |
| 20260902043507 | 11 | 205 | 0.0 | 0.0 | 0.00 | 0.10 | 0.10 | 75 | 1030.5 |
| 20260902043006 | 11 | 201 | 0.0 | 0.0 | 0.00 | 0.10 | 0.10 | 75 | 1030.5 |
| 20260902042501 | 11 | 212 | 0.0 | 0.0 | 0.00 | 0.10 | 0.10 | 75 | 1030.8 |
| 20260902041956 | 11 | 184 | 1.6 | 1.6 | 0.00 | 0.10 | 0.10 | 74 | 1030.8 |
| 20260902041456 | 11 | 214 | 0.0 | 0.0 | 0.00 | 0.10 | 0.10 | 74 | 1030.8 |
| 20260902040951 | 12 | 195 | 1.6 | 1.6 | 0.00 | 0.10 | 0.10 | 73 | 1030.8 |
| 20260902040450 | 12 | 212 | 0.0 | 0.0 | 0.00 | 0.10 | 0.10 | 73 | 1030.5 |
| 20260902035944 | 12 | 204 | 1.6 | 1.6 | 0.00 | 0.10 | 0.10 | 73 | 1030.7 |
| 20260902035439 | 12 | 182 | 1.6 | 1.6 | 0.00 | 0.10 | 0.10 | 73 | 1030.5 |
| 20260902034939 | 12 | 187 | 1.6 | 1.6 | 0.00 | 0.10 | 0.10 | 74 | 1030.5 |
| 20260902034433 | 12 | 187 | 1.6 | 1.6 | 0.00 | 0.10 | 0.10 | 73 | 1030.4 |
| 20260902033933 | 12 | 197 | 1.6 | 1.6 | 0.00 | 0.10 | 0.10 | 72 | 1030.7 |
| 20260902033432 | 12 | 178 | 1.6 | 1.6 | 0.00 | 0.10 | 0.10 | 72 | 1030.7 |
| 20260902032931 | 12 | 204 | 0.0 | 1.6 | 0.00 | 0.10 | 0.10 | 72 | 1030.8 |
| 20260902032426 | 12 | 223 | 1.6 | 1.6 | 0.00 | 0.10 | 0.10 | 71 | 1030.7 |
| 20260902031921 | 12 | 214 | 0.0 | 0.0 | 0.00 | 0.10 | 0.10 | 71 | 1030.8 |
| 20260902031416 | 12 | 213 | 0.0 | 0.0 | 0.00 | 0.10 | 0.10 | 71 | 1030.7 |
| 20260902030912 | 13 | 219 | 0.0 | 0.0 | 0.00 | 0.10 | 0.10 | 71 | 1030.3 |
| 20260902030407 | 13 | 195 | 0.0 | 0.0 | 0.00 | 0.10 | 0.10 | 70 | 1030.3 |
| 20260902025905 | 13 | 192 | 0.0 | 1.6 | 0.00 | 0.10 | 0.10 | 70 | 1030.4 |
| 20260902025356 | 13 | 219 | 0.0 | 0.0 | 0.00 | 0.10 | 0.10 | 68 | 1030.4 |
| 20260902024856 | 13 | 203 | 0.0 | 0.0 | 0.00 | 0.10 | 0.10 | 68 | 1030.0 |
| 20260902024351 | 14 | 206 | 0.0 | 0.0 | 0.00 | 0.10 | 0.10 | 67 | 1030.3 |
| 20260902023846 | 14 | 198 | 1.6 | 1.6 | 0.00 | 0.10 | 0.10 | 67 | 1030.4 |
| 20260902023336 | 14 | 219 | 0.0 | 0.0 | 0.00 | 0.10 | 0.10 | 66 | 1029.9 |
| 20260902022835 | 15 | 198 | 0.0 | 0.0 | 0.00 | 0.10 | 0.10 | 65 | 1029.9 |
| 20260902022331 | 15 | 214 | 0.0 | 0.0 | 0.00 | 0.10 | 0.10 | 64 | 1030.0 |
| 20260902021827 | 15 | 194 | 1.6 | 1.6 | 0.00 | 0.10 | 0.10 | 65 | 1029.8 |
| 20260902021327 | 16 | 222 | 0.0 | 0.0 | 0.00 | 0.10 | 0.10 | 63 | 1029.8 |
| 20260902020823 | 16 | 222 | 0.0 | 1.6 | 0.00 | 0.10 | 0.10 | 61 | 1029.5 |
| 20260902020319 | 16 | 220 | 0.0 | 0.0 | 0.00 | 0.10 | 0.10 | 61 | 1029.8 |
| 20260902015814 | 16 | 212 | 0.0 | 1.6 | 0.00 | 0.10 | 0.10 | 62 | 1029.7 |
| 20260902015310 | 16 | 219 | 0.0 | 0.0 | 0.00 | 0.10 | 0.10 | 62 | 1029.8 |
| 20260902014805 | 16 | 206 | 0.0 | 0.0 | 0.00 | 0.10 | 0.10 | 61 | 1029.7 |
| 20260902014302 | 16 | 195 | 1.6 | 1.6 | 0.00 | 0.10 | 0.10 | 61 | 1029.7 |
| 20260902013800 | 16 | 193 | 1.6 | 1.6 | 0.00 | 0.10 | 0.10 | 62 | 1029.5 |
| 20260902013256 | 16 | 212 | 0.0 | 0.0 | 0.00 | 0.10 | 0.10 | 62 | 1029.7 |
| 20260902012751 | 16 | 219 | 0.0 | 0.0 | 0.00 | 0.10 | 0.10 | 62 | 1029.4 |
| 20260902012247 | 16 | 212 | 0.0 | 0.0 | 0.00 | 0.10 | 0.10 | 62 | 1029.5 |
| 20260902011743 | 17 | 214 | 0.0 | 0.0 | 0.00 | 0.10 | 0.10 | 60 | 1029.7 |
| 20260902011242 | 17 | 224 | 0.0 | 0.0 | 0.00 | 0.10 | 0.10 | 60 | 1029.8 |
| 20260902010741 | 18 | 222 | 0.0 | 0.0 | 0.00 | 0.10 | 0.10 | 59 | 1029.5 |
| 20260902010237 | 18 | 217 | 0.0 | 0.0 | 0.00 | 0.10 | 0.10 | 57 | 1029.5 |
| 20260902005736 | 19 | 219 | 0.0 | 0.0 | 0.00 | 0.10 | 0.10 | 56 | 1029.4 |
| 20260902005232 | 20 | 219 | 0.0 | 0.0 | 0.00 | 0.10 | 0.10 | 55 | 1029.5 |
| 20260902004731 | 20 | 221 | 0.0 | 0.0 | 0.00 | 0.10 | 0.10 | 51 | 1029.7 |
| 20260902004226 | 21 | 220 | 0.0 | 0.0 | 0.00 | 0.10 | 0.10 | 47 | 1029.3 |
| 20260902003721 | 20 | 207 | 0.0 | 1.6 | 0.00 | 0.10 | 0.10 | 48 | 1029.3 |
| 20260902003217 | 20 | 203 | 0.0 | 0.0 | 0.00 | 0.10 | 0.10 | 49 | 1029.3 |
| 20260902002713 | 20 | 214 | 0.0 | 0.0 | 0.00 | 0.10 | 0.10 | 48 | 1029.4 |
| 20260902002212 | 20 | 214 | 0.0 | 0.0 | 0.00 | 0.10 | 0.10 | 47 | 1029.3 |
| 20260902001708 | 21 | 209 | 0.0 | 1.6 | 0.00 | 0.10 | 0.10 | 47 | 1029.3 |
| 20260902001207 | 21 | 222 | 0.0 | 0.0 | 0.00 | 0.10 | 0.10 | 45 | 1029.4 |
| 20260902000703 | 21 | 6 | 3.2 | 3.2 | 0.00 | 0.10 | 0.10 | 45 | 1029.3 |
| 20260902000158 | 22 | 226 | 3.2 | 3.2 | 0.00 | 0.10 | 0.10 | 46 | 1029.4 |
| 20260901235657 | 22 | 291 | 3.2 | 3.2 | 0.00 | 0.10 | 0.10 | 44 | 1029.3 |
| 20260901235152 | 22 | 214 | 0.0 | 0.0 | 0.00 | 0.10 | 0.10 | 46 | 1029.3 |
| 20260901234651 | 22 | 216 | 0.0 | 0.0 | 0.00 | 0.10 | 0.10 | 45 | 1029.1 |
| 20260901234147 | 22 | 145 | 4.8 | 4.8 | 0.00 | 0.10 | 0.10 | 45 | 1029.5 |
| 20260901233641 | 22 | 305 | 1.6 | 3.2 | 0.00 | 0.10 | 0.10 | 44 | 1029.0 |
| 20260901233137 | 22 | 233 | 3.2 | 4.8 | 0.00 | 0.10 | 0.10 | 43 | 1029.3 |
| 20260901232632 | 23 | 240 | 4.8 | 4.8 | 0.00 | 0.10 | 0.10 | 44 | 1029.1 |
| 20260901232127 | 23 | 257 | 6.4 | 8.0 | 0.00 | 0.10 | 0.10 | 42 | 1029.1 |
| 20260901231624 | 23 | 249 | 3.2 | 3.2 | 0.00 | 0.10 | 0.10 | 43 | 1029.3 |
| 20260901231120 | 22 | 238 | 0.0 | 0.0 | 0.00 | 0.10 | 0.10 | 43 | 1029.3 |
| 20260901230616 | 22 | 183 | 0.0 | 0.0 | 0.00 | 0.10 | 0.10 | 43 | 1029.4 |
| 20260901230115 | 22 | 229 | 3.2 | 3.2 | 0.00 | 0.10 | 0.10 | 43 | 1029.3 |
| 20260901225610 | 22 | 225 | 3.2 | 3.2 | 0.00 | 0.10 | 0.10 | 43 | 1029.3 |
| 20260901225110 | 22 | 221 | 1.6 | 1.6 | 0.00 | 0.10 | 0.10 | 43 | 1029.3 |
| 20260901224607 | 22 | 172 | 3.2 | 3.2 | 0.00 | 0.10 | 0.10 | 40 | 1029.0 |
| 20260901224103 | 22 | 347 | 0.0 | 0.0 | 0.00 | 0.10 | 0.10 | 42 | 1029.1 |
| 20260901223557 | 23 | 223 | 1.6 | 3.2 | 0.00 | 0.10 | 0.10 | 43 | 1029.3 |
| 20260901223053 | 25 | 136 | 3.2 | 4.8 | 0.00 | 0.10 | 0.10 | 40 | 1029.3 |
| 20260901222549 | 23 | 212 | 1.6 | 1.6 | 0.00 | 0.10 | 0.10 | 42 | 1029.4 |
| 20260901222045 | 24 | 45 | 4.8 | 4.8 | 0.00 | 0.10 | 0.10 | 41 | 1029.3 |
| 20260901221541 | 23 | 28 | 1.6 | 3.2 | 0.00 | 0.10 | 0.10 | 41 | 1029.5 |
| 20260901221036 | 22 | 250 | 3.2 | 3.2 | 0.00 | 0.10 | 0.10 | 42 | 1029.5 |
| 20260901220535 | 21 | 223 | 1.6 | 1.6 | 0.00 | 0.10 | 0.10 | 44 | 1029.7 |
| 20260901220034 | 21 | 18 | 3.2 | 4.8 | 0.00 | 0.10 | 0.10 | 44 | 1029.5 |
| 20260901215533 | 22 | 347 | 8.0 | 9.7 | 0.00 | 0.10 | 0.10 | 43 | 1029.8 |
| 20260901215032 | 22 | 157 | 1.6 | 3.2 | 0.00 | 0.10 | 0.10 | 44 | 1029.5 |
| 20260901214531 | 21 | 2 | 4.8 | 4.8 | 0.00 | 0.10 | 0.10 | 44 | 1029.8 |
| 20260901214026 | 22 | 240 | 1.6 | 1.6 | 0.00 | 0.10 | 0.10 | 43 | 1029.5 |
| 20260901213520 | 22 | 23 | 11.3 | 12.9 | 0.00 | 0.10 | 0.10 | 43 | 1029.7 |
| 20260901213020 | 22 | 28 | 8.0 | 9.7 | 0.00 | 0.10 | 0.10 | 44 | 1029.8 |
| 20260901212514 | 22 | 29 | 4.8 | 4.8 | 0.00 | 0.10 | 0.10 | 44 | 1029.8 |
| 20260901212011 | 22 | 359 | 4.8 | 4.8 | 0.00 | 0.10 | 0.10 | 43 | 1029.8 |
| 20260901211506 | 22 | 48 | 4.8 | 8.0 | 0.00 | 0.10 | 0.10 | 43 | 1029.4 |
| 20260901211002 | 23 | 214 | 1.6 | 3.2 | 0.00 | 0.10 | 0.10 | 43 | 1029.7 |
| 20260901210457 | 22 | 192 | 4.8 | 8.0 | 0.00 | 0.10 | 0.10 | 45 | 1029.8 |
| 20260901205953 | 22 | 339 | 8.0 | 9.7 | 0.00 | 0.10 | 0.10 | 44 | 1029.5 |
| 20260901205449 | 22 | 320 | 4.8 | 4.8 | 0.00 | 0.10 | 0.10 | 44 | 1029.7 |
| 20260901204943 | 22 | 247 | 4.8 | 4.8 | 0.00 | 0.10 | 0.10 | 44 | 1029.7 |
| 20260901204440 | 23 | 302 | 6.4 | 9.7 | 0.00 | 0.10 | 0.10 | 43 | 1029.5 |
| 20260901203939 | 22 | 241 | 3.2 | 4.8 | 0.00 | 0.10 | 0.10 | 42 | 1029.7 |
| 20260901203434 | 23 | 58 | 9.7 | 11.3 | 0.00 | 0.10 | 0.10 | 42 | 1029.5 |
| 20260901202929 | 22 | 344 | 3.2 | 3.2 | 0.00 | 0.10 | 0.10 | 43 | 1029.8 |
| 20260901202430 | 22 | 11 | 4.8 | 8.0 | 0.00 | 0.10 | 0.10 | 43 | 1029.7 |
| 20260901201926 | 22 | 4 | 6.4 | 9.7 | 0.00 | 0.10 | 0.10 | 43 | 1029.7 |
| 20260901201426 | 22 | 153 | 0.0 | 1.6 | 0.00 | 0.10 | 0.10 | 43 | 1030.0 |
| 20260901200920 | 22 | 245 | 1.6 | 3.2 | 0.00 | 0.10 | 0.10 | 40 | 1029.9 |
| 20260901200415 | 22 | 74 | 4.8 | 9.7 | 0.00 | 0.10 | 0.10 | 40 | 1029.8 |
| 20260901195914 | 22 | 32 | 1.6 | 3.2 | 0.00 | 0.10 | 0.10 | 42 | 1029.7 |
| 20260901195413 | 22 | 171 | 3.2 | 4.8 | 0.00 | 0.10 | 0.10 | 43 | 1030.0 |
| 20260901194908 | 22 | 190 | 0.0 | 1.6 | 0.00 | 0.10 | 0.10 | 43 | 1029.8 |
| 20260901194402 | 22 | 287 | 8.0 | 11.3 | 0.00 | 0.10 | 0.10 | 43 | 1030.0 |
| 20260901193858 | 23 | 331 | 3.2 | 3.2 | 0.00 | 0.10 | 0.10 | 37 | 1029.9 |
| 20260901193352 | 22 | 216 | 1.6 | 1.6 | 0.00 | 0.10 | 0.10 | 36 | 1029.9 |
| 20260901192852 | 22 | 52 | 0.0 | 1.6 | 0.00 | 0.10 | 0.10 | 39 | 1029.9 |
| 20260901192348 | 22 | 215 | 4.8 | 4.8 | 0.00 | 0.10 | 0.10 | 36 | 1030.2 |
| 20260901191844 | 22 | 220 | 1.6 | 3.2 | 0.00 | 0.10 | 0.10 | 39 | 1029.9 |
| 20260901191339 | 22 | 317 | 4.8 | 4.8 | 0.00 | 0.10 | 0.10 | 39 | 1029.9 |
| 20260901190835 | 22 | 190 | 1.6 | 1.6 | 0.00 | 0.10 | 0.10 | 39 | 1030.2 |
| 20260901190335 | 22 | 276 | 6.4 | 8.0 | 0.00 | 0.10 | 0.10 | 39 | 1030.2 |
| 20260901185833 | 22 | 130 | 4.8 | 8.0 | 0.00 | 0.10 | 0.10 | 38 | 1030.2 |
| 20260901185332 | 22 | 221 | 0.0 | 1.6 | 0.00 | 0.10 | 0.10 | 40 | 1030.0 |
| 20260901184828 | 24 | 264 | 4.8 | 4.8 | 0.00 | 0.10 | 0.10 | 37 | 1030.3 |
| 20260901184323 | 23 | 228 | 0.0 | 0.0 | 0.00 | 0.10 | 0.10 | 36 | 1030.5 |
| 20260901183819 | 22 | 210 | 8.0 | 9.7 | 0.00 | 0.10 | 0.10 | 38 | 1030.3 |
| 20260901183318 | 22 | 250 | 1.6 | 3.2 | 0.00 | 0.10 | 0.10 | 36 | 1030.5 |
| 20260901182815 | 22 | 272 | 9.7 | 11.3 | 0.00 | 0.10 | 0.10 | 39 | 1030.7 |
| 20260901182314 | 23 | 184 | 3.2 | 4.8 | 0.00 | 0.10 | 0.10 | 37 | 1030.8 |
| 20260901181809 | 23 | 103 | 0.0 | 0.0 | 0.00 | 0.10 | 0.10 | 36 | 1030.3 |
| 20260901181303 | 23 | 163 | 6.4 | 9.7 | 0.00 | 0.10 | 0.10 | 36 | 1030.4 |
| 20260901180757 | 23 | 203 | 1.6 | 3.2 | 0.00 | 0.10 | 0.10 | 38 | 1030.8 |
| 20260901180256 | 23 | 214 | 3.2 | 3.2 | 0.00 | 0.10 | 0.10 | 42 | 1030.8 |
| 20260901175755 | 22 | 236 | 1.6 | 3.2 | 0.00 | 0.10 | 0.10 | 38 | 1030.7 |
| 20260901175250 | 22 | 225 | 1.6 | 3.2 | 0.00 | 0.10 | 0.10 | 41 | 1030.9 |
| 20260901174745 | 21 | 191 | 1.6 | 1.6 | 0.00 | 0.10 | 0.10 | 41 | 1030.9 |
| 20260901174241 | 22 | 180 | 3.2 | 4.8 | 0.00 | 0.10 | 0.10 | 42 | 1031.0 |
| 20260901173737 | 20 | 93 | 4.8 | 8.0 | 0.00 | 0.10 | 0.10 | 41 | 1031.2 |
| 20260901173231 | 21 | 213 | 1.6 | 1.6 | 0.00 | 0.10 | 0.10 | 41 | 1031.2 |
| 20260901172728 | 21 | 248 | 1.6 | 3.2 | 0.00 | 0.10 | 0.10 | 42 | 1030.9 |
| 20260901172226 | 21 | 177 | 0.0 | 0.0 | 0.00 | 0.10 | 0.10 | 42 | 1031.2 |
| 20260901171725 | 20 | 210 | 3.2 | 4.8 | 0.00 | 0.10 | 0.10 | 47 | 1031.2 |
| 20260901171224 | 20 | 211 | 1.6 | 3.2 | 0.00 | 0.10 | 0.10 | 45 | 1031.2 |
| 20260901170723 | 20 | 227 | 4.8 | 4.8 | 0.00 | 0.10 | 0.10 | 47 | 1031.3 |
| 20260901170218 | 20 | 179 | 1.6 | 3.2 | 0.00 | 0.10 | 0.10 | 43 | 1031.0 |
| 20260901165717 | 21 | 213 | 0.0 | 1.6 | 0.00 | 0.10 | 0.10 | 49 | 1031.3 |
| 20260901165212 | 21 | 141 | 1.6 | 1.6 | 0.00 | 0.10 | 0.10 | 45 | 1031.0 |
| 20260901164708 | 21 | 208 | 0.0 | 0.0 | 0.00 | 0.10 | 0.10 | 44 | 1031.3 |
| 20260901164203 | 21 | 216 | 3.2 | 3.2 | 0.00 | 0.10 | 0.10 | 45 | 1031.3 |
| 20260901163658 | 21 | 216 | 3.2 | 4.8 | 0.00 | 0.10 | 0.10 | 45 | 1031.5 |
| 20260901163157 | 21 | 227 | 4.8 | 4.8 | 0.00 | 0.10 | 0.10 | 45 | 1031.0 |
| 20260901162653 | 21 | 191 | 8.0 | 11.3 | 0.00 | 0.10 | 0.10 | 44 | 1031.3 |
| 20260901162152 | 20 | 178 | 6.4 | 9.7 | 0.00 | 0.10 | 0.10 | 46 | 1031.0 |
| 20260901161651 | 20 | 200 | 1.6 | 3.2 | 0.00 | 0.10 | 0.10 | 50 | 1031.2 |
| 20260901161151 | 20 | 153 | 4.8 | 8.0 | 0.00 | 0.10 | 0.10 | 44 | 1031.4 |
| 20260901160648 | 20 | 186 | 4.8 | 4.8 | 0.00 | 0.10 | 0.10 | 45 | 1031.5 |
| 20260901160142 | 20 | 210 | 3.2 | 4.8 | 0.00 | 0.10 | 0.10 | 47 | 1031.2 |
| 20260901155641 | 19 | 165 | 3.2 | 3.2 | 0.00 | 0.10 | 0.10 | 49 | 1031.3 |
| 20260901155137 | 19 | 117 | 3.2 | 8.0 | 0.00 | 0.10 | 0.10 | 50 | 1031.2 |
| 20260901154632 | 20 | 108 | 9.7 | 11.3 | 0.00 | 0.10 | 0.10 | 45 | 1031.3 |
| 20260901154126 | 19 | 147 | 1.6 | 3.2 | 0.00 | 0.10 | 0.10 | 53 | 1031.5 |
| 20260901153622 | 19 | 214 | 0.0 | 1.6 | 0.00 | 0.10 | 0.10 | 48 | 1031.5 |
| 20260901153121 | 18 | 196 | 0.0 | 1.6 | 0.00 | 0.10 | 0.10 | 54 | 1031.3 |
| 20260901152617 | 17 | 152 | 3.2 | 3.2 | 0.00 | 0.10 | 0.10 | 55 | 1031.5 |
| 20260901152115 | 17 | 121 | 6.4 | 9.7 | 0.00 | 0.10 | 0.10 | 52 | 1031.5 |
| 20260901151611 | 16 | 171 | 4.8 | 4.8 | 0.00 | 0.10 | 0.10 | 59 | 1031.5 |
| 20260901151110 | 15 | 216 | 1.6 | 3.2 | 0.00 | 0.10 | 0.10 | 66 | 1031.4 |
| 20260901150609 | 13 | 237 | 0.0 | 0.0 | 0.00 | 0.10 | 0.10 | 82 | 1031.4 |
| 20260901150108 | 12 | 169 | 1.6 | 1.6 | 0.00 | 0.10 | 0.10 | 92 | 1031.2 |
| 20260901145601 | 12 | 203 | 0.0 | 1.6 | 0.00 | 0.10 | 0.10 | 96 | 1031.4 |
| 20260901145100 | 12 | 211 | 0.0 | 0.0 | 0.00 | 0.10 | 0.10 | 97 | 1031.4 |
| 20260901144556 | 11 | 239 | 1.6 | 1.6 | 0.00 | 0.10 | 0.10 | 97 | 1031.2 |
| 20260901144050 | 11 | 204 | 0.0 | 0.0 | 0.00 | 0.10 | 0.10 | 98 | 1031.7 |
| 20260901143541 | 11 | 237 | 0.0 | 0.0 | 0.00 | 0.10 | 0.10 | 99 | 1031.4 |
| 20260901143037 | 11 | 233 | 1.6 | 1.6 | 0.00 | 0.10 | 0.10 | 99 | 1031.4 |
| 20260901142531 | 10 | 216 | 0.0 | 0.0 | 0.00 | 0.10 | 0.10 | 99 | 1031.2 |
| 20260901142026 | 10 | 165 | 1.6 | 1.6 | 0.00 | 0.10 | 0.10 | 99 | 1031.2 |
| 20260901141526 | 10 | 210 | 0.0 | 0.0 | 0.00 | 0.10 | 0.10 | 99 | 1031.2 |
| 20260901141022 | 10 | 224 | 0.0 | 0.0 | 0.00 | 0.10 | 0.10 | 99 | 1031.3 |
| 20260901140520 | 10 | 189 | 1.6 | 1.6 | 0.00 | 0.10 | 0.10 | 99 | 1031.3 |
| 20260901140015 | 10 | 220 | 1.6 | 3.2 | 0.00 | 0.10 | 0.10 | 99 | 1031.3 |
| 20260901135514 | 10 | 207 | 0.0 | 0.0 | 0.00 | 0.10 | 0.10 | 99 | 1031.4 |
| 20260901135010 | 10 | 248 | 0.0 | 0.0 | 0.00 | 0.10 | 0.10 | 99 | 1031.0 |
| 20260901134506 | 10 | 208 | 0.0 | 0.0 | 0.00 | 0.10 | 0.10 | 99 | 1031.0 |
| 20260901134000 | 10 | 240 | 0.0 | 0.0 | 0.00 | 0.10 | 0.10 | 99 | 1031.3 |
| 20260901133459 | 10 | 197 | 1.6 | 1.6 | 0.00 | 0.10 | 0.10 | 99 | 1030.8 |
| 20260901132957 | 10 | 219 | 0.0 | 0.0 | 0.00 | 0.10 | 0.10 | 99 | 1030.9 |
| 20260901132452 | 10 | 219 | 0.0 | 0.0 | 0.00 | 0.10 | 0.10 | 99 | 1031.0 |
| 20260901131951 | 10 | 199 | 0.0 | 0.0 | 0.00 | 0.10 | 0.10 | 99 | 1030.8 |
| 20260901131450 | 10 | 197 | 0.0 | 0.0 | 0.00 | 0.10 | 0.10 | 99 | 1030.7 |
| 20260901130946 | 10 | 216 | 0.0 | 0.0 | 0.00 | 0.10 | 0.10 | 99 | 1030.5 |
| 20260901130441 | 10 | 208 | 0.0 | 0.0 | 0.00 | 0.10 | 0.10 | 99 | 1030.4 |
| 20260901125938 | 10 | 217 | 0.0 | 0.0 | 0.00 | 0.10 | 0.10 | 99 | 1030.7 |
| 20260901125439 | 9 | 215 | 0.0 | 0.0 | 0.00 | 0.10 | 0.10 | 99 | 1030.5 |
| 20260901124933 | 9 | 201 | 0.0 | 0.0 | 0.00 | 0.10 | 0.10 | 99 | 1030.3 |
| 20260901124428 | 9 | 201 | 0.0 | 0.0 | 0.00 | 0.10 | 0.10 | 99 | 1030.3 |
| 20260901123923 | 10 | 184 | 0.0 | 0.0 | 0.00 | 0.10 | 0.10 | 99 | 1029.8 |
| 20260901123418 | 10 | 217 | 0.0 | 0.0 | 0.00 | 0.10 | 0.10 | 99 | 1030.0 |
| 20260901122916 | 10 | 216 | 0.0 | 0.0 | 0.00 | 0.10 | 0.10 | 99 | 1030.0 |
| 20260901122411 | 9 | 188 | 0.0 | 0.0 | 0.00 | 0.10 | 0.10 | 99 | 1029.9 |
| 20260901121910 | 9 | 218 | 0.0 | 0.0 | 0.00 | 0.10 | 0.10 | 99 | 1030.2 |
| 20260901121405 | 10 | 224 | 0.0 | 0.0 | 0.00 | 0.10 | 0.10 | 99 | 1029.9 |
| 20260901120901 | 9 | 216 | 0.0 | 0.0 | 0.00 | 0.10 | 0.10 | 99 | 1029.7 |
| 20260901120400 | 9 | 221 | 0.0 | 0.0 | 0.00 | 0.10 | 0.10 | 99 | 1029.7 |
| 20260901115856 | 9 | 218 | 0.0 | 0.0 | 0.00 | 0.10 | 0.10 | 99 | 1029.9 |
| 20260901115356 | 9 | 188 | 0.0 | 0.0 | 0.00 | 0.10 | 0.10 | 99 | 1029.8 |
| 20260901114854 | 9 | 180 | 0.0 | 0.0 | 0.00 | 0.10 | 0.10 | 99 | 1029.9 |
| 20260901114349 | 9 | 221 | 0.0 | 0.0 | 0.00 | 0.10 | 0.10 | 99 | 1029.9 |
| 20260901113847 | 9 | 161 | 0.0 | 0.0 | 0.00 | 0.10 | 0.10 | 99 | 1030.2 |
| 20260901113346 | 10 | 235 | 0.0 | 0.0 | 0.00 | 0.10 | 0.10 | 99 | 1030.2 |
| 20260901112841 | 10 | 176 | 0.0 | 0.0 | 0.00 | 0.10 | 0.10 | 99 | 1029.8 |
| 20260901112336 | 9 | 205 | 0.0 | 0.0 | 0.00 | 0.10 | 0.10 | 99 | 1030.2 |
| 20260901111831 | 10 | 223 | 0.0 | 0.0 | 0.00 | 0.10 | 0.10 | 99 | 1029.9 |
| 20260901111329 | 9 | 218 | 0.0 | 0.0 | 0.00 | 0.10 | 0.10 | 99 | 1030.0 |
| 20260901110828 | 9 | 203 | 0.0 | 0.0 | 0.00 | 0.10 | 0.10 | 99 | 1030.2 |
| 20260901110324 | 9 | 219 | 0.0 | 0.0 | 0.00 | 0.10 | 0.10 | 99 | 1029.9 |
| 20260901105820 | 10 | 223 | 0.0 | 0.0 | 0.00 | 0.10 | 0.10 | 99 | 1029.9 |
| 20260901105320 | 10 | 204 | 0.0 | 0.0 | 0.00 | 0.10 | 0.10 | 99 | 1029.8 |
| 20260901104817 | 10 | 214 | 0.0 | 0.0 | 0.00 | 0.10 | 0.10 | 99 | 1030.3 |
| 20260901104312 | 10 | 203 | 0.0 | 0.0 | 0.00 | 0.10 | 0.10 | 99 | 1029.9 |
| 20260901103807 | 10 | 183 | 0.0 | 0.0 | 0.00 | 0.10 | 0.10 | 99 | 1030.3 |
| 20260901103306 | 10 | 222 | 0.0 | 0.0 | 0.00 | 0.10 | 0.10 | 99 | 1030.2 |
| 20260901102801 | 10 | 187 | 0.0 | 0.0 | 0.00 | 0.10 | 0.10 | 99 | 1030.3 |
| 20260901102256 | 10 | 237 | 0.0 | 0.0 | 0.00 | 0.10 | 0.10 | 99 | 1030.2 |
| 20260901101752 | 10 | 219 | 1.6 | 1.6 | 0.00 | 0.10 | 0.10 | 99 | 1030.2 |
| 20260901101251 | 10 | 230 | 0.0 | 0.0 | 0.00 | 0.10 | 0.10 | 99 | 1030.4 |
| 20260901100751 | 10 | 226 | 0.0 | 0.0 | 0.00 | 0.10 | 0.10 | 99 | 1030.7 |
| 20260901100246 | 10 | 144 | 3.2 | 3.2 | 0.00 | 0.10 | 0.10 | 99 | 1030.3 |
| 20260901095744 | 10 | 183 | 3.2 | 3.2 | 0.00 | 0.10 | 0.10 | 99 | 1030.5 |
| 20260901095242 | 10 | 201 | 0.0 | 0.0 | 0.00 | 0.10 | 0.10 | 99 | 1030.4 |
| 20260901094737 | 10 | 189 | 0.0 | 1.6 | 0.00 | 0.10 | 0.10 | 99 | 1030.8 |
| 20260901094232 | 10 | 190 | 1.6 | 3.2 | 0.00 | 0.10 | 0.10 | 99 | 1030.8 |
| 20260901093727 | 10 | 186 | 0.0 | 0.0 | 0.00 | 0.10 | 0.10 | 99 | 1030.8 |
| 20260901093225 | 10 | 244 | 0.0 | 0.0 | 0.00 | 0.10 | 0.10 | 99 | 1030.8 |
| 20260901092722 | 10 | 220 | 0.0 | 0.0 | 0.00 | 0.10 | 0.10 | 99 | 1030.7 |
| 20260901092218 | 10 | 214 | 0.0 | 0.0 | 0.00 | 0.10 | 0.10 | 99 | 1030.7 |
| 20260901091713 | 10 | 224 | 0.0 | 1.6 | 0.00 | 0.10 | 0.10 | 99 | 1031.0 |
| 20260901091208 | 10 | 202 | 0.0 | 0.0 | 0.00 | 0.10 | 0.10 | 99 | 1030.8 |
| 20260901090702 | 10 | 219 | 0.0 | 0.0 | 0.00 | 0.10 | 0.10 | 99 | 1030.9 |
| 20260901090158 | 10 | 221 | 0.0 | 0.0 | 0.00 | 0.10 | 0.10 | 99 | 1030.9 |
| 20260901085654 | 10 | 196 | 0.0 | 0.0 | 0.00 | 0.10 | 0.10 | 99 | 1031.0 |
| 20260901085149 | 10 | 219 | 0.0 | 0.0 | 0.00 | 0.10 | 0.10 | 99 | 1030.8 |
| 20260901084645 | 10 | 156 | 1.6 | 3.2 | 0.00 | 0.10 | 0.10 | 99 | 1030.7 |
| 20260901084142 | 10 | 217 | 0.0 | 0.0 | 0.00 | 0.10 | 0.10 | 99 | 1031.2 |
| 20260901083641 | 10 | 221 | 0.0 | 0.0 | 0.00 | 0.10 | 0.10 | 99 | 1031.0 |
| 20260901083140 | 10 | 226 | 0.0 | 0.0 | 0.00 | 0.10 | 0.10 | 99 | 1030.8 |
| 20260901082634 | 10 | 195 | 0.0 | 0.0 | 0.00 | 0.10 | 0.10 | 99 | 1031.2 |
| 20260901082130 | 11 | 213 | 0.0 | 0.0 | 0.00 | 0.10 | 0.10 | 99 | 1031.3 |
| 20260901081625 | 11 | 209 | 0.0 | 0.0 | 0.00 | 0.10 | 0.10 | 99 | 1031.3 |
| 20260901081120 | 11 | 216 | 0.0 | 0.0 | 0.00 | 0.10 | 0.10 | 99 | 1031.4 |
| 20260901080620 | 11 | 196 | 1.6 | 1.6 | 0.00 | 0.10 | 0.10 | 99 | 1031.3 |
| 20260901080118 | 11 | 219 | 0.0 | 0.0 | 0.00 | 0.10 | 0.10 | 99 | 1031.7 |
| 20260901075614 | 11 | 222 | 0.0 | 0.0 | 0.00 | 0.10 | 0.10 | 99 | 1031.4 |
| 20260901075114 | 11 | 206 | 0.0 | 0.0 | 0.00 | 0.10 | 0.10 | 99 | 1031.7 |
| 20260901074614 | 11 | 221 | 0.0 | 1.6 | 0.00 | 0.10 | 0.10 | 99 | 1031.8 |
| 20260901074114 | 11 | 206 | 1.6 | 1.6 | 0.00 | 0.10 | 0.10 | 99 | 1031.9 |
| 20260901073611 | 11 | 201 | 0.0 | 0.0 | 0.00 | 0.10 | 0.10 | 99 | 1031.8 |
| 20260901073105 | 11 | 215 | 0.0 | 0.0 | 0.00 | 0.10 | 0.10 | 99 | 1031.8 |
| 20260901072601 | 11 | 219 | 0.0 | 0.0 | 0.00 | 0.10 | 0.10 | 99 | 1031.8 |
| 20260901072055 | 11 | 237 | 1.6 | 1.6 | 0.00 | 0.10 | 0.10 | 99 | 1032.1 |
| 20260901071555 | 11 | 183 | 3.2 | 3.2 | 0.00 | 0.10 | 0.10 | 99 | 1031.5 |
| 20260901071055 | 11 | 201 | 0.0 | 0.0 | 0.00 | 0.10 | 0.10 | 99 | 1031.9 |
| 20260901070549 | 11 | 104 | 1.6 | 3.2 | 0.00 | 0.10 | 0.10 | 99 | 1031.9 |
| 20260901070044 | 11 | 227 | 0.0 | 0.0 | 0.00 | 0.10 | 0.10 | 99 | 1031.4 |
| 20260901065538 | 11 | 211 | 0.0 | 0.0 | 0.00 | 0.10 | 0.10 | 99 | 1031.9 |
| 20260901065033 | 11 | 222 | 0.0 | 0.0 | 0.00 | 0.10 | 0.10 | 99 | 1032.1 |
| 20260901064531 | 11 | 188 | 0.0 | 0.0 | 0.00 | 0.10 | 0.10 | 99 | 1032.2 |
| 20260901064027 | 11 | 224 | 0.0 | 0.0 | 0.18 | 0.10 | 0.10 | 99 | 1032.2 |
| 20260901063524 | 11 | 222 | 0.0 | 0.0 | 0.48 | 0.10 | 0.10 | 99 | 1032.1 |
| 20260901063019 | 11 | 260 | 1.6 | 3.2 | 0.43 | 0.08 | 0.08 | 99 | 1032.6 |
| 20260901062515 | 11 | 232 | 1.6 | 3.2 | 0.13 | 0.03 | 0.03 | 99 | 1032.6 |